Overview Statistics Trail Chart Weather Telemetry Raw packets
 

This is the latest recevied weather packets stored in our database for station/object NO9B. If no packets are shown the sender has not sent any weather packets the latest 10 day(s).

<< 16 17 18 19 20 21 22 >>
Time Temp. Humidity Pressure Rain* Wind** Luminosity Snow
1788545854 25° C 90% 1014.5 hPa 0 mm - 439 W/m² -
1788545553 25° C 91% 1014.7 hPa 0 mm - 305 W/m² -
1788545249 24.44° C 91% 1014.6 hPa 0 mm - 287 W/m² -
1788544944 23.89° C 92% 1014.5 hPa 0 mm - 209 W/m² -
1788544643 23.89° C 93% 1014.6 hPa 0 mm - 150 W/m² -
1788544342 23.33° C 93% 1014.5 hPa 0 mm - 100 W/m² -
1788544037 23.33° C 94% 1014.5 hPa 0 mm - 86 W/m² -
1788543733 23.33° C 94% 1014.6 hPa 0 mm - 99 W/m² -
1788543428 23.33° C 94% 1014.6 hPa 0 mm - 92 W/m² -
1788543123 23.33° C 95% 1014.7 hPa 0 mm - 88 W/m² -
1788542820 22.78° C 95% 1014.7 hPa 0 mm - 83 W/m² -
1788542519 22.78° C 95% 1014.7 hPa 0 mm - 91 W/m² -
1788542214 22.78° C 95% 1014.7 hPa 0 mm - 108 W/m² -
1788541914 22.78° C 96% 1014.7 hPa 0 mm - 116 W/m² -
1788541611 22.22° C 97% 1014.6 hPa 0 mm - 140 W/m² -
1788541307 22.22° C 97% 1014.9 hPa 0 mm - 141 W/m² -
1788541005 22.22° C 97% 1014.6 hPa 0 mm - 103 W/m² -
1788540704 21.67° C 97% 1014.7 hPa 0 mm - 70 W/m² -
1788540400 21.67° C 97% 1015.1 hPa 0 mm - 53 W/m² -
1788540095 21.67° C 97% 1015 hPa 0 mm - 46 W/m² -
1788539790 21.67° C 96% 1015.2 hPa 0 mm - 36 W/m² -
1788539486 21.67° C 97% 1015.6 hPa 0 mm - 25 W/m² -
1788539186 21.67° C 97% 1015.6 hPa 0.51 mm - 20 W/m² -
1788538886 21.67° C 97% 1015.6 hPa 0.51 mm - 18 W/m² -
1788538582 21.67° C 97% 1015.6 hPa 0.51 mm - 15 W/m² -

* Rain latest hour (hover to see other rain measurements)
** Current wind speed in m/s (hover to see current wind gust speed)